This is the latest recevied weather packets stored in our database for station/object N6ZHV-13. If no packets are shown the sender has not sent any weather packets the latest 10 day(s).
| Time | Temp. | Humidity | Pressure | Rain* | Wind** | Luminosity | Snow |
|---|---|---|---|---|---|---|---|
| 1777945192 | 15.56° C | 74% | 1016.2 hPa | 0 mm | - | - | - |
| 1777944893 | 16.11° C | 74% | 1016.2 hPa | 0 mm | - | - | - |
| 1777944593 | 16.11° C | 74% | 1016.3 hPa | 0 mm | - | - | - |
| 1777944293 | 16.11° C | 73% | 1016.3 hPa | 0 mm | - | - | - |
| 1777943993 | 16.11° C | 72% | 1016.3 hPa | 0 mm | - | - | - |
| 1777943692 | 16.11° C | 71% | 1016.3 hPa | 0 mm | - | - | - |
| 1777943393 | 16.67° C | 70% | 1016.3 hPa | 0 mm | - | - | - |
| 1777943093 | 16.67° C | 69% | 1016.3 hPa | 0 mm | - | - | - |
| 1777942793 | 16.67° C | 72% | 1016.3 hPa | 0 mm | - | - | - |
| 1777942493 | 16.67° C | 69% | 1016.2 hPa | 0 mm | - | - | - |
| 1777942193 | 16.67° C | 70% | 1016.2 hPa | 0 mm | - | - | - |
| 1777941893 | 16.67° C | 66% | 1016.2 hPa | 0 mm | - | - | - |
| 1777941593 | 17.22° C | 67% | 1016.3 hPa | 0 mm | - | - | - |
| 1777941293 | 17.22° C | 66% | 1016.3 hPa | 0 mm | - | - | - |
| 1777940993 | 16.67° C | 67% | 1016.3 hPa | 0 mm | - | - | - |
| 1777940693 | 17.22° C | 66% | 1016.4 hPa | 0 mm | - | - | - |
| 1777940393 | 16.67° C | 68% | 1016.4 hPa | 0 mm | - | - | - |
| 1777940093 | 17.22° C | 67% | 1015.4 hPa | 0 mm | - | - | - |
| 1777939793 | 17.22° C | 68% | 1016.4 hPa | 0 mm | - | - | - |
| 1777939493 | 17.22° C | 67% | 1016.4 hPa | 0 mm | - | - | - |
| 1777939193 | 17.22° C | 63% | 1016.4 hPa | 0 mm | - | - | - |
| 1777938893 | 17.22° C | 63% | 1016.3 hPa | 0 mm | - | - | - |
| 1777938593 | 17.22° C | 64% | 1016.3 hPa | 0 mm | - | - | - |
| 1777938293 | 17.22° C | 63% | 1016.3 hPa | 0 mm | - | - | - |
| 1777937993 | 17.22° C | 65% | 1016.3 hPa | 0 mm | - | - | - |
* Rain latest hour (hover to see other rain measurements)
** Current wind speed in m/s (hover to see current wind gust speed)